Location: Praha
(50.0830°N, 14.4670°E)
Time: 15:53:32
(UTC+01:00)

ISS - Pass Details

Date: 21 November 2020
Orbit: 418 x 420 km, 51.6° (Epoch: 04 December)

Event Time Altitude Azimuth Distance (km) Brightness Sun altitude
Rises 18:53:39 0° 234° (SW) 2,354 0.9 -25.7°
Reaches altitude 10° 18:55:46 10° 229° (SW) 1,493 -0.4 -26.0°
Enters shadow 18:56:49 18° 222° (SW) 1,090 -1.2 -26.2°
